Content
SEND FEEDBACK

Daily
Averages
Monthly
Summary
United States of America

ASHEVILLE, NORTH CAROLINA


Home > North America > United States > North Carolina
Elevation: 2240 feet     Latitude: 35 36N     Longitude: 082 32W

WEATHER
 
SELECT A DAY
Number of Records: 226,813;   Date Range: 1/1/95 - 9/19/14
 
SHARE

PRINT THIS DATA

[ ← Previous Day ]
WEATHER ALMANAC - JANUARY 22, 2013
[ Next Day → ]
[ °C ]   °F
Weather ElementAverageHighLow
Temperature25.5 °F32 °F (3:54 pm)19.9 °F (7:54 am)
Dewpoint1.8 °F10 °F (1:54 am)-6 °F (4:54 pm)
Humidity37.8 %55 % (4:54 am)21 % (4:54 pm)
Barometer30.18 in30.25 in (8:54 pm)30.02 in (1:54 am)
Wind Speed11.8 mph18.4 mph (2:54 pm)
Wind Gust27.6 mph (9:54 am)
Weather ElementAverage
Visibility10 mi
Wind DirectionNNW (347.8 °)

Weather ElementTotal
Precipitation---
Heating Degree Days39.1 (Base 65)
Averaged from 23 records on January 22, 2013
WEATHER CONDITIONS BREAKOUT
WIND DIRECTION BREAKOUT
WEATHER BY HOUR - JANUARY 22, 2013
[ °C ]   °F
Local TimeTemperatureDewpointHumidityBarometerVisibilityWind DirectionWind SpeedGust SpeedPrecipitationEventsConditions
1:54 AM28.0 °F10.0 °F47 %30.02 in10.0 miNNW (340°)12.7 mph20.7 mphClear
2:54 AM26.1 °F10.0 °F51 %30.04 in10.0 miNorth (350°)9.2 mphClear
3:54 AM24.1 °F9.0 °F53 %30.05 in10.0 miNNW (340°)12.7 mph19.6 mphClear
4:54 AM23.0 °F9.0 °F55 %30.06 in10.0 miNNW (340°)10.4 mph21.9 mphClear
5:54 AM21.9 °F7.0 °F53 %30.10 in10.0 miNorth (350°)6.9 mph17.3 mphClear
6:54 AM21.0 °F6.1 °F53 %30.12 in10.0 miNorth (360°)12.7 mph21.9 mphClear
7:54 AM19.9 °F5.0 °F52 %30.16 in10.0 miNorth (360°)13.8 mph21.9 mphClear
8:54 AM21.9 °F3.9 °F46 %30.18 in10.0 miNorth (360°)13.8 mph25.3 mphClear
9:54 AM23.0 °F3.0 °F42 %30.21 in10.0 miNorth (350°)15.0 mph27.6 mphClear
10:54 AM26.1 °F3.0 °F37 %30.22 in10.0 miNorth (350°)11.5 mph19.6 mphClear
11:54 AM28.0 °F1.0 °F31 %30.23 in10.0 miNorth (360°)12.7 mph21.9 mphClear
12:54 PM28.9 °F0.0 °F29 %30.20 in10.0 miNorth (360°)12.7 mph23.0 mphClear
1:54 PM30.0 °F-2.0 °F25 %30.19 in10.0 miNorth (360°)12.7 mph20.7 mphClear
2:54 PM30.9 °F-4.0 °F22 %30.18 in10.0 miNNW (340°)18.4 mph24.2 mphClear
3:54 PM32.0 °F-2.9 °F22 %30.19 in10.0 miNorth (360°)10.4 mph21.9 mphClear
4:54 PM30.0 °F-6.0 °F21 %30.20 in10.0 miNorth (350°)8.1 mphClear
5:54 PM28.0 °F-6.0 °F23 %30.22 in10.0 miNNW (340°)12.7 mphClear
6:54 PM26.1 °F-2.0 °F30 %30.22 in10.0 miNNW (340°)15.0 mphClear
7:54 PM25.0 °F-0.9 °F33 %30.24 in10.0 miNNW (330°)13.8 mphClear
8:54 PM24.1 °F-0.9 °F34 %30.25 in10.0 miNNW (340°)12.7 mphClear
9:54 PM24.1 °F0.0 °F35 %30.25 in10.0 miNorth (350°)9.2 mphClear
10:54 PM21.9 °F0.0 °F38 %30.25 in10.0 miNNW (330°)8.1 mphClear
11:54 PM21.9 °F0.0 °F38 %30.25 in10.0 miNNW (340°)6.9 mphClear
Hourly data recorded from KAVL, located miles away from Asheville, North Carolina







STORIES FROM OUR PARTNERS